Regional Weather Roundup
Issued by NWS

Home | Current Version | Previous Version | Graphics & Text | Print | Product List | Glossary On
Versions: 1 2 3 4 5 6 7 8 9 10 11 12 13 14 15 16 17 18 19 20 21 22 23 24 25 26 27 28 29 30 31 32 33 34 35 36 37 38 39 40 41 42 43 44 45 46 47 48 49 50
000
ASUS44 KMEG 160900
RWRTN
TENNESSEE HOURLY STATE WEATHER ROUNDUP
NATIONAL WEATHER SERVICE MEMPHIS TN
300 AM CST MON JAN 16 2017

TNZ002-004-019-021-049-052-054-088>092-161000-
WEST TENNESSEE

CITY           SKY/WX    TMP DP  RH WIND       PRES   REMARKS
MEMPHIS INTL   PTCLDY    51  51 100 NE5       30.13F
NWS MEMPHIS      N/A     51 N/A N/A MISG        N/A
JACKSON        CLOUDY    51  51 100 E3        30.17F
DYERSBURG      PTCLDY    46  45  93 E3        30.16S
UNION CITY     CLOUDY   N/A N/A N/A CALM      30.16F
PARIS          CLOUDY    45  43  93 CALM      30.18F VSB 1
$$

TNZ008-025-027-028-033-062-065-066-161000-
NORTH MIDDLE TENNESSEE

CITY           SKY/WX    TMP DP  RH WIND       PRES   REMARKS
NASHVILLE      FOG       50  49  96 NE3       30.23F VSB 1/4
CLARKSVILLE    FOG       45  44  97 E6        30.22F VSB 1/4
SMYRNA         CLOUDY    47  46  97 NW3       30.24S
CROSSVILLE     FOG       49  48  97 CALM      30.25S VSB 1/2
$$

TNZ061-075-076-078-094-096-097-161000-
SOUTH MIDDLE TENNESSEE

CITY           SKY/WX    TMP DP  RH WIND       PRES   REMARKS
TULLAHOMA      PTCLDY    48  48 100 CALM      30.23S
WINCHESTER     MOCLDY    50  48  93 SE3       30.23S
COLUMBIA       MOCLDY   N/A N/A N/A CALM      30.20S
SHELBYVILLE    CLOUDY    52  52 100 CALM      30.22S
$$

TNZ017-018-042-046-047-161000-
NORTHEAST TENNESSEE

CITY           SKY/WX    TMP DP  RH WIND       PRES   REMARKS
TRI CITIES     FOG       54  54 100 CALM      30.26F VSB 1
$$

TNZ012-013-036-069-073-074-161000-
CENTRAL EAST TENNESSEE

CITY           SKY/WX    TMP DP  RH WIND       PRES   REMARKS
KNOXVILLE      FOG       54  53  97 N3        30.24S VSB 1/16
OAK RIDGE      CLOUDY    55  52  89 CALM      30.26S
GATLINBURG     CLOUDY    52  52 100 CALM      30.24F VSB 1/4
$$

TNZ083-085-099-161000-
SOUTHEAST TENNESSEE

CITY           SKY/WX    TMP DP  RH WIND       PRES   REMARKS
CHATTANOOGA    PTCLDY    48  46  93 CALM      30.25R
$$

SKY/WX REPORTED AS FAIR MEANS FEW OR NO CLOUDS BELOW
12 THOUSAND FEET.





USA.gov is the U.S. government's official web portal to all federal, state and local government web resources and services.